Temperature
23 22 21 22 28 29 27 27 27 27 26 25 24 24 24 24 24 22 20 19 19 19 18 18 18 18 18 18 18 18 18 18 18 18 18 18 18 18 18 18 18 18 18 18 18 18 18 18 18
22 22 23 27 30 28 27 27 27 26 25 24 24 24 24 23 21 20 19 19 19 19 18 18 18 18 18 18 18 18 18 18 18 18 18 18 18 18 18 18 18 18 18 18 18 18 18 18 18
22 22 26 30 29 28 27 27 26 26 25 25 24 24 23 22 21 20 19 19 19 19 18 18 18 18 18 18 18 18 18 18 18 18 18 18 18 18 18 18 18 18 18 18 18 18 18 18 18
23 26 29 30 28 28 28 27 27 27 25 25 25 24 22 20 21 20 19 19 19 19 18 18 18 18 18 18 18 18 18 18 18 18 18 18 18 18 18 18 18 18 18 18 18 18 18 18 18
25 29 31 30 28 28 28 27 27 27 26 25 25 24 22 20 20 20 19 19 20 19 19 18 18 18 18 18 18 18 18 18 18 18 18 18 18 18 18 18 18 18 18 18 18 18 18 18 18
29 31 31 29 28 28 28 27 27 27 26 25 24 24 21 20 20 20 19 19 19 19 19 18 18 18 18 18 18 18 18 18 18 18 18 18 18 18 18 18 18 18 18 18 18 18 18 18 17
30 32 30 30 29 28 28 27 27 27 26 25 25 24 22 21 20 19 19 19 19 19 19 18 18 18 18 18 18 18 18 18 18 18 18 18 18 18 18 18 18 18 18 18 18 18 18 17 17
30 32 31 30 29 29 28 27 27 27 26 24 24 25 23 20 20 19 19 19 19 19 19 18 18 18 18 18 18 18 18 18 18 18 18 18 18 18 18 18 18 18 18 18 18 18 17 17 17
29 32 31 31 30 29 28 28 26 26 25 24 24 24 22 20 20 20 20 19 19 18 18 19 18 18 18 18 18 18 18 18 18 18 18 18 17 17 17 17 18 18 18 18 18 18 18 17 17
31 32 31 31 31 30 29 28 27 27 26 25 23 22 21 20 20 20 20 20 19 19 18 18 18 18 18 18 18 18 18 17 17 17 17 17 17 17 17 18 18 18 18 18 18 18 18 17 17
32 32 31 31 30 29 29 28 27 28 27 26 24 22 21 21 21 21 21 20 20 19 18 18 18 18 18 18 18 18 18 17 17 17 17 17 17 17 17 17 17 18 18 17 17 17 17 17 17
32 31 31 31 29 29 29 28 28 27 27 25 24 23 22 22 21 21 21 20 20 19 19 18 18 18 18 18 18 18 18 18 18 17 17 17 17 17 17 17 17 17 17 17 17 17 17 17 17
32 31 30 30 29 29 29 28 28 27 25 24 24 23 22 22 22 21 20 20 19 19 19 18 18 18 18 18 18 18 18 18 18 17 17 17 17 17 17 17 17 17 17 17 17 17 17 17 17
31 31 30 30 29 29 29 28 28 26 25 24 24 23 23 22 22 21 20 20 19 19 18 18 18 18 18 18 18 18 18 18 18 17 17 17 17 17 17 17 17 17 17 17 17 17 17 17 17
31 31 31 30 30 29 29 29 28 26 25 25 24 23 22 22 21 21 20 20 19 19 19 18 18 18 18 18 18 18 18 18 18 18 17 17 17 17 17 17 17 17 17 17 17 17 17 17 17
32 32 31 30 30 29 30 29 28 26 25 25 24 23 22 22 21 21 20 20 19 19 19 19 18 18 18 18 18 18 18 18 18 18 17 17 17 17 17 18 18 17 17 17 17 17 17 17 17
32 32 31 31 31 30 30 30 29 27 26 26 25 24 23 22 22 21 20 20 19 19 19 19 19 18 18 18 18 18 18 18 18 18 17 17 17 17 18 18 18 18 17 17 18 17 17 17 17
32 32 32 31 31 31 30 30 29 27 27 26 25 24 23 23 22 21 21 20 19 19 19 19 19 19 18 18 18 18 18 18 18 18 18 17 17 17 18 18 18 17 17 17 17 17 17 17 17
33 32 32 31 31 31 30 30 29 28 27 27 26 25 24 24 23 22 21 21 20 19 19 19 19 19 19 18 18 18 18 18 18 17 18 18 17 17 18 18 18 18 17 17 17 17 17 17 17
32 32 32 31 31 31 30 30 30 29 28 27 26 25 25 24 23 22 21 21 20 20 19 19 19 19 19 18 18 18 18 18 18 18 18 18 17 18 17 18 18 18 17 17 17 17 17 17 17
32 32 32 31 31 31 30 30 30 29 28 27 27 26 25 25 24 22 22 21 21 20 20 19 19 19 19 19 18 18 18 18 18 18 18 17 17 17 17 17 17 18 17 17 17 17 17 17 17
32 32 32 31 31 31 31 31 30 30 29 28 27 26 26 25 24 23 22 22 21 21 20 20 19 19 19 19 18 18 18 18 18 18 18 17 17 17 17 17 17 17 17 17 17 17 17 17 17
32 32 32 32 31 31 31 31 31 30 30 29 28 27 26 25 24 23 23 22 21 21 20 20 20 19 19 19 19 18 18 18 18 18 18 18 17 17 17 17 17 17 17 17 17 17 17 17 17
31 31 31 31 32 31 31 31 31 31 30 30 29 27 26 26 24 23 23 22 21 21 20 20 20 20 19 19 19 18 18 18 18 18 18 18 18 17 17 17 17 17 17 17 17 17 17 17 17
31 31 30 30 30 31 30 30 31 31 30 30 30 28 26 25 25 24 23 22 21 21 20 20 20 20 19 19 18 18 18 18 18 18 18 18 18 18 17 17 17 17 17 17 17 17 17 17 17
31 32 30 30 30 31 30 30 31 30 29 29 28 28 26 26 25 24 23 22 21 21 20 20 20 19 19 19 19 18 18 18 18 18 18 18 17 17 17 17 17 17 17 17 17 17 16 16 16
31 32 33 32 31 31 31 31 31 30 30 29 28 27 26 26 25 24 23 22 21 21 20 20 20 19 19 19 19 18 18 18 18 18 18 17 17 17 17 17 17 17 17 17 17 16 16 16 16
32 32 32 31 30 30 30 31 31 30 30 29 29 28 26 25 25 24 23 22 22 21 20 20 19 19 19 19 19 18 18 18 18 18 18 17 17 17 17 17 17 17 17 17 17 16 16 16 16
30 31 31 31 31 30 30 31 31 30 30 29 28 27 26 25 24 24 23 22 22 21 20 20 20 19 19 19 19 18 18 18 17 17 17 17 17 17 17 17 17 17 17 16 16 16 16 16 16
31 31 31 30 30 30 31 30 30 30 30 29 28 26 25 25 24 23 23 22 22 21 20 20 20 19 19 19 19 18 18 17 17 17 17 17 17 17 17 16 16 16 16 16 16 16 16 16 15
Wind_Speed
13 10 6 4 2 8 13 11 9 8 7 8 8 7 8 9 7 6 5 5 5 6 9 10 9 9 10 10 11 12 12 12 11 11 11 11 12 12 13 13 13 14 13 13 13 14 14 15 15
10 6 5 2 5 11 12 11 12 11 9 7 8 8 9 9 8 6 6 6 5 7 9 10 10 10 10 10 10 11 11 11 11 11 11 11 11 12 12 12 13 13 13 13 13 13 13 13 14
7 6 3 3 12 12 11 10 11 10 8 6 6 7 7 7 6 5 8 6 7 8 9 11 9 10 10 9 10 10 11 11 11 11 11 11 11 11 11 11 12 13 12 12 12 12 12 13 14
5 4 1 8 15 13 11 9 8 9 9 7 7 8 7 6 5 8 9 7 8 9 9 12 9 9 9 9 9 9 10 10 10 11 11 11 11 11 11 11 11 12 12 11 11 11 11 12 14
4 1 6 12 14 12 10 9 7 8 8 8 9 11 9 7 9 10 9 8 8 8 9 12 10 8 8 8 8 9 9 9 10 10 10 10 10 10 10 10 10 10 11 11 11 11 11 11 12
2 1 8 12 13 10 9 8 8 10 11 10 10 10 8 8 9 9 9 8 8 8 9 10 11 8 8 8 8 8 8 9 9 9 9 9 9 10 10 9 9 9 10 10 10 11 10 10 11
2 6 11 11 11 10 8 7 7 8 10 9 7 9 8 8 8 8 8 7 7 7 8 8 8 9 8 7 7 7 8 8 8 9 9 9 9 9 9 9 9 9 9 10 10 10 10 9 9
2 3 10 10 10 11 8 7 7 7 9 8 5 6 8 9 9 8 8 8 7 6 7 7 7 6 6 8 8 7 8 8 8 8 9 9 9 9 8 8 8 8 8 9 10 9 9 8 8
2 4 10 10 9 9 8 8 7 7 9 8 7 9 11 12 10 9 8 8 7 5 5 5 6 5 5 6 8 8 10 9 8 8 8 7 7 7 7 8 7 7 8 9 9 8 8 8 8
1 7 11 8 8 9 9 8 7 7 9 9 10 11 12 12 9 8 8 7 7 6 5 5 5 5 5 4 6 6 6 7 5 5 6 5 5 4 6 9 7 7 8 9 8 7 8 7 7
4 8 8 8 8 8 9 8 6 7 7 7 10 13 12 11 9 7 7 6 6 6 5 5 5 4 4 4 4 4 4 4 5 5 4 5 4 5 5 5 7 7 8 7 8 7 5 4 3
5 7 6 7 7 8 8 8 7 6 7 8 10 13 12 10 8 7 6 5 5 5 5 5 5 4 3 3 4 4 3 3 4 5 4 4 3 3 3 3 4 4 4 4 4 3 4 3 3
5 6 6 7 8 8 8 8 7 8 8 10 12 12 10 9 7 6 6 5 5 5 5 5 4 4 3 2 1 4 3 3 4 3 3 3 3 3 3 3 2 3 3 4 3 3 3 3 4
5 6 7 8 8 7 8 7 6 8 9 11 11 11 9 8 7 6 5 5 5 4 4 4 5 5 4 3 2 2 3 3 3 3 3 2 2 3 3 3 2 2 2 2 2 3 3 2 2
6 7 8 6 6 6 6 6 5 9 10 11 10 9 9 8 7 6 5 5 5 5 4 4 5 4 4 3 3 2 2 3 2 2 3 2 2 2 2 2 2 2 2 3 3 3 3 3 3
6 5 4 5 4 4 5 4 7 10 10 10 10 9 9 7 7 6 6 5 5 5 5 4 4 5 4 3 2 2 1 2 2 2 3 2 2 2 2 1 1 1 2 2 2 3 3 2 2
6 4 3 6 5 4 4 3 7 9 10 9 9 9 9 8 7 6 6 6 6 5 5 5 4 4 4 3 3 2 1 1 1 1 2 2 2 2 2 1 1 2 2 2 3 2 2 2 2
4 3 3 3 5 5 4 2 7 9 10 9 9 9 9 9 8 8 7 7 6 6 5 5 5 4 4 3 3 2 1 1 1 1 1 1 2 2 1 1 1 2 1 2 2 2 2 2 2
4 4 3 2 3 4 4 3 5 9 10 10 9 9 9 9 9 8 8 7 7 6 6 6 5 5 4 3 3 3 2 2 2 2 1 1 2 2 2 1 1 1 1 2 2 2 3 3 2
7 6 5 4 3 4 3 3 4 8 11 10 10 10 10 10 10 9 9 9 8 8 7 6 6 6 5 4 2 2 1 1 2 1 2 1 1 2 2 1 1 1 1 1 2 2 3 2 2
8 7 5 4 5 6 4 5 6 7 9 10 10 10 10 11 11 11 10 10 9 9 8 6 6 6 5 4 4 3 2 2 2 2 2 2 2 2 2 2 1 2 2 2 2 3 3 3 3
9 6 5 6 7 4 5 3 4 7 9 10 11 11 11 11 11 11 11 11 10 9 8 7 7 6 6 5 4 3 3 2 1 1 1 2 2 2 2 2 2 3 2 2 3 2 3 4 3
5 4 6 7 7 6 5 5 2 6 6 9 11 12 12 12 12 12 12 11 10 9 9 8 7 7 6 5 5 4 3 2 1 1 2 2 2 2 2 2 2 3 3 3 3 2 3 3 3
7 6 5 7 8 7 4 6 2 3 3 5 8 11 12 12 12 11 11 11 10 9 8 8 8 7 6 6 5 4 3 3 2 2 2 2 2 2 2 2 2 3 2 2 3 3 3 3 3
10 9 7 8 7 5 3 5 2 1 1 2 5 9 11 12 12 12 12 12 10 10 9 8 8 7 6 6 5 4 4 4 4 3 3 2 2 1 1 2 2 2 2 2 2 3 3 3 3
14 14 9 7 6 5 5 5 1 1 1 2 4 7 10 11 11 12 12 11 11 10 9 9 8 7 6 6 5 4 4 4 3 2 2 2 2 1 1 2 2 2 2 2 2 3 2 2 3
12 13 11 9 8 7 4 4 3 3 3 4 5 7 9 10 11 11 11 11 10 10 9 8 8 7 6 6 5 4 4 3 2 2 3 2 2 1 1 2 2 2 1 2 2 2 2 2 3
9 10 9 10 8 9 7 7 4 3 3 4 5 7 9 10 10 10 10 11 10 9 9 8 8 7 6 6 5 4 4 3 3 3 1 1 1 1 1 1 1 1 1 1 2 2 1 2 2
10 11 10 9 9 10 8 3 1 2 3 3 4 6 8 9 10 10 9 10 10 9 9 9 8 7 6 6 5 4 4 3 3 3 2 2 1 1 1 1 1 1 1 1 1 1 1 2 1
11 12 13 11 9 10 10 3 4 2 2 3 4 5 7 8 8 9 9 9 10 10 9 8 8 7 7 6 5 4 4 3 3 3 2 2 2 1 1 1 1 1 1 1 1 1 1 1 1
Wind_Direction
169 176 202 230 181 71 63 59 59 65 63 60 61 63 60 48 44 74 90 91 96 98 102 108 96 98 97 95 96 100 104 105 105 106 109 108 107 106 108 110 114 115 115 116 119 121 122 125 126
169 185 224 245 56 68 64 60 62 64 84 90 77 76 74 68 63 90 104 97 105 99 102 98 100 98 97 93 95 101 104 104 102 103 107 107 107 106 106 108 111 112 114 118 120 121 123 126 127
179 224 276 47 54 58 66 68 75 82 83 83 84 66 62 67 72 89 101 112 108 98 100 101 104 98 99 96 95 101 106 105 103 103 104 104 106 107 107 106 107 108 112 115 117 119 123 127 129
215 220 162 63 66 62 70 83 89 89 79 75 91 83 74 57 72 96 111 115 105 106 104 103 105 102 103 102 100 102 108 108 106 104 104 103 104 106 107 108 108 109 111 112 114 116 119 127 130
241 258 79 72 70 73 77 85 83 75 77 83 87 93 87 75 91 104 111 107 101 101 97 101 104 108 107 108 107 107 109 110 109 107 107 107 108 109 109 110 111 113 113 114 114 113 116 122 129
244 52 67 72 76 80 85 90 85 83 89 92 94 97 89 103 105 107 109 104 98 99 99 102 109 104 101 105 109 112 113 112 112 111 110 110 110 109 108 109 112 115 117 117 116 115 116 120 127
4 58 72 77 84 85 86 91 81 89 92 88 95 99 110 115 109 112 110 106 100 100 103 105 113 112 114 105 100 108 115 116 116 114 112 110 110 109 108 109 112 116 121 123 122 121 118 119 125
318 76 78 77 80 86 101 97 82 84 88 95 95 100 120 127 126 123 119 113 103 101 106 114 108 107 119 114 103 104 116 117 118 114 115 118 123 120 121 125 116 120 125 128 127 128 126 129 132
245 77 70 70 79 98 115 109 96 93 103 97 82 89 114 130 135 132 124 121 117 110 105 104 109 114 112 102 110 123 133 133 142 131 135 151 136 131 139 108 118 129 133 133 132 138 142 150 150
107 65 67 69 81 107 117 110 118 119 113 110 107 108 123 137 144 140 132 128 124 119 115 110 110 116 108 95 103 114 124 130 129 121 135 133 125 124 116 119 123 132 140 143 141 152 166 184 159
74 71 77 87 97 112 120 117 120 116 111 120 130 136 142 145 147 142 134 126 118 120 116 119 112 105 102 106 102 103 111 119 121 118 124 123 133 135 134 135 140 144 158 154 151 173 174 164 151
92 79 83 94 111 119 117 117 112 99 91 116 133 142 147 151 149 144 136 128 124 122 120 115 117 116 103 89 104 116 116 119 115 123 132 131 129 130 116 128 135 145 147 142 156 160 154 151 163
107 91 92 105 117 118 119 114 107 105 111 124 133 144 150 150 146 143 138 137 134 132 127 120 125 122 123 120 112 108 110 113 117 122 121 131 140 133 129 121 134 141 139 153 161 160 152 167 178
106 112 112 120 122 128 124 119 119 118 133 136 142 149 151 151 150 148 155 153 150 141 135 134 145 141 140 140 125 110 113 120 120 126 119 131 129 131 145 147 151 152 168 165 174 170 180 192 171
139 134 129 131 142 145 148 127 123 136 149 149 152 153 155 155 157 160 161 163 155 150 150 154 160 153 156 153 150 134 128 126 115 122 121 134 134 139 168 151 172 162 175 177 198 195 196 200 190
180 184 154 143 168 176 223 115 134 152 162 160 161 161 165 166 168 166 167 168 157 156 157 169 168 160 166 165 176 154 138 126 134 144 137 142 137 165 202 175 162 182 201 199 198 218 207 201 212
198 202 148 145 181 187 219 120 139 166 173 170 172 172 173 173 179 176 177 173 169 168 168 172 174 173 177 174 178 177 156 143 153 149 141 148 164 176 203 168 129 218 214 217 232 192 226 217 230
191 201 179 166 173 200 212 155 152 175 186 182 181 181 181 183 182 179 179 175 174 172 173 174 178 181 188 182 177 179 169 177 167 161 143 165 177 183 214 179 182 227 206 220 232 231 233 243 248
228 223 198 145 156 207 216 209 175 181 191 189 189 190 190 190 179 177 178 178 175 175 176 179 183 177 188 189 194 183 177 177 175 174 150 185 204 190 210 215 162 242 224 244 238 235 218 228 235
221 223 207 162 169 224 232 233 193 192 199 199 195 193 195 188 179 179 181 181 183 180 181 183 184 181 190 183 194 193 190 189 167 162 144 196 208 219 203 213 233 226 234 244 250 243 252 241 223
220 233 227 198 181 209 245 219 188 188 197 199 202 199 197 193 187 183 184 185 186 186 186 187 185 183 189 188 191 185 182 200 184 183 184 203 210 219 246 237 257 248 242 234 243 232 235 244 237
222 220 228 211 222 221 243 263 162 181 191 198 200 198 197 194 192 189 187 186 189 189 185 184 184 184 186 196 202 205 208 212 203 213 176 195 212 227 233 239 241 253 256 240 241 224 241 239 241
223 190 214 221 237 251 225 267 153 169 197 200 199 199 198 194 192 192 192 189 189 188 184 181 181 183 186 196 200 214 223 218 213 215 181 223 215 227 234 237 242 245 253 254 258 243 251 248 255
165 170 189 222 237 240 237 260 243 175 202 198 191 194 195 192 189 190 190 185 185 184 182 178 177 182 188 196 200 215 224 226 230 233 223 223 215 221 222 233 240 247 257 254 250 247 237 257 263
198 209 217 218 222 231 195 249 266 75 192 221 193 185 188 189 187 185 184 181 180 181 180 177 176 180 185 192 200 207 217 221 224 231 220 239 241 228 203 243 241 254 256 259 260 244 256 253 259
211 223 233 246 241 214 194 240 215 121 172 202 190 177 178 183 185 183 181 179 178 178 179 179 177 180 182 187 195 203 215 227 224 232 253 243 259 273 257 230 235 248 253 251 244 247 244 248 257
211 225 243 249 259 257 223 219 216 180 181 182 178 170 174 179 179 179 178 178 176 178 179 177 175 178 181 183 190 194 202 220 224 222 233 235 239 241 230 229 228 232 234 252 249 256 257 254 263
237 223 227 240 243 252 241 236 229 202 190 181 182 177 175 176 174 175 176 175 173 173 173 174 174 175 176 179 189 184 192 201 208 217 212 239 243 255 231 224 205 202 206 222 242 228 234 248 260
198 211 226 239 248 254 255 234 133 192 188 189 184 175 175 178 176 174 174 174 169 170 173 173 170 171 175 175 176 182 184 189 195 197 198 203 206 202 212 214 205 216 234 226 234 259 248 249 262
219 220 219 231 234 245 265 246 100 120 145 152 154 158 167 175 173 172 171 171 172 174 173 173 174 176 176 173 172 178 178 177 184 184 188 184 177 191 194 203 207 230 242 240 233 258 278 289 302
Height
1490 1490 1491 1492 1486 1486 1495 1495 1492 1494 1498 1502 1503 1502 1503 1505 1508 1518 1520 1518 1519 1520 1519 1518 1518 1518 1518 1519 1519 1520 1520 1521 1521 1522 1523 1524 1525 1526 1526 1527 1528 1529 1529 1530 1531 1532 1533 1534 1536
1492 1492 1493 1489 1483 1496 1502 1496 1497 1499 1503 1505 1505 1506 1506 1510 1514 1517 1519 1520 1521 1521 1522 1520 1520 1520 1520 1521 1521 1522 1522 1523 1523 1524 1525 1526 1527 1528 1528 1529 1530 1531 1531 1532 1533 1533 1534 1535 1537
1493 1493 1493 1484 1488 1498 1503 1500 1501 1503 1505 1505 1507 1509 1511 1515 1518 1519 1521 1522 1523 1523 1523 1521 1522 1522 1522 1523 1523 1524 1524 1525 1525 1526 1527 1528 1528 1529 1530 1531 1532 1533 1533 1534 1535 1535 1534 1535 1537
1495 1495 1490 1487 1496 1498 1498 1501 1503 1504 1506 1507 1508 1511 1516 1519 1520 1522 1522 1524 1524 1525 1525 1524 1523 1523 1524 1524 1525 1525 1526 1527 1527 1528 1529 1530 1531 1531 1532 1533 1534 1534 1535 1536 1536 1536 1535 1536 1538
1496 1490 1485 1492 1497 1499 1500 1503 1504 1504 1506 1509 1510 1514 1519 1522 1523 1523 1524 1525 1526 1527 1527 1526 1525 1525 1525 1526 1526 1526 1527 1528 1529 1530 1531 1532 1532 1533 1534 1534 1535 1536 1537 1537 1538 1538 1538 1538 1540
1493 1485 1489 1498 1500 1499 1502 1505 1505 1507 1510 1512 1513 1516 1522 1525 1525 1526 1526 1527 1528 1528 1528 1527 1527 1527 1527 1527 1527 1527 1528 1529 1530 1531 1533 1533 1534 1535 1535 1536 1537 1537 1538 1539 1540 1540 1541 1542 1543
1492 1485 1491 1495 1499 1501 1503 1506 1506 1507 1511 1514 1515 1517 1523 1526 1527 1527 1528 1528 1529 1529 1530 1530 1530 1529 1528 1528 1527 1527 1528 1530 1531 1533 1534 1535 1535 1536 1537 1537 1538 1539 1540 1540 1541 1542 1543 1544 1545
1493 1486 1489 1493 1498 1502 1504 1507 1509 1509 1513 1517 1517 1517 1523 1527 1527 1529 1529 1530 1530 1531 1531 1531 1532 1532 1531 1530 1527 1526 1528 1530 1532 1534 1535 1536 1537 1538 1538 1539 1539 1540 1540 1541 1542 1544 1544 1545 1546
1494 1488 1493 1494 1497 1501 1504 1507 1511 1513 1515 1517 1519 1520 1524 1527 1528 1529 1530 1531 1531 1532 1533 1533 1533 1533 1533 1532 1529 1527 1528 1531 1534 1536 1537 1538 1540 1541 1541 1540 1541 1541 1542 1543 1544 1545 1546 1547 1548
1492 1490 1494 1494 1496 1499 1505 1507 1511 1512 1515 1518 1521 1524 1526 1527 1529 1530 1531 1532 1533 1533 1534 1534 1535 1535 1535 1534 1531 1530 1532 1534 1536 1537 1539 1540 1540 1542 1542 1541 1541 1542 1543 1544 1545 1546 1547 1548 1550
1492 1492 1494 1497 1500 1502 1505 1508 1510 1511 1513 1517 1521 1524 1527 1528 1530 1531 1532 1533 1534 1534 1535 1535 1536 1536 1536 1536 1535 1534 1535 1537 1538 1539 1539 1540 1541 1542 1543 1543 1543 1543 1544 1546 1546 1548 1549 1550 1551
1495 1496 1498 1499 1502 1503 1505 1508 1510 1512 1516 1519 1522 1524 1527 1529 1531 1532 1533 1534 1535 1535 1536 1536 1536 1536 1536 1537 1538 1538 1539 1539 1540 1540 1541 1542 1542 1543 1544 1544 1545 1545 1546 1547 1548 1548 1549 1550 1551
1496 1498 1500 1502 1503 1505 1507 1509 1511 1515 1519 1521 1523 1526 1528 1529 1531 1533 1534 1535 1536 1536 1537 1537 1537 1537 1537 1537 1539 1540 1540 1541 1541 1541 1541 1542 1543 1544 1544 1544 1545 1546 1547 1547 1548 1549 1549 1550 1551
1498 1499 1501 1503 1504 1506 1507 1510 1513 1517 1520 1522 1524 1526 1528 1530 1532 1533 1535 1535 1536 1537 1537 1537 1537 1538 1538 1538 1539 1540 1542 1541 1542 1543 1543 1543 1544 1544 1545 1545 1546 1547 1548 1548 1549 1549 1550 1551 1552
1499 1499 1501 1503 1504 1506 1507 1510 1512 1517 1520 1522 1524 1527 1529 1531 1532 1534 1535 1536 1536 1537 1537 1537 1538 1538 1539 1540 1541 1542 1542 1543 1543 1543 1543 1543 1544 1544 1545 1546 1546 1547 1548 1548 1549 1550 1550 1551 1552
1496 1496 1500 1502 1503 1505 1506 1510 1511 1516 1519 1521 1524 1527 1529 1531 1532 1534 1535 1536 1537 1537 1537 1538 1539 1539 1539 1540 1540 1542 1543 1543 1543 1544 1544 1544 1544 1545 1545 1546 1547 1547 1548 1548 1549 1549 1550 1550 1551
1494 1497 1499 1501 1501 1502 1503 1506 1510 1515 1517 1520 1523 1525 1528 1530 1532 1533 1534 1535 1536 1537 1537 1538 1539 1539 1540 1540 1541 1542 1542 1543 1544 1544 1544 1544 1544 1545 1546 1546 1546 1546 1547 1548 1548 1549 1549 1550 1550
1497 1495 1497 1499 1499 1500 1502 1503 1507 1512 1515 1518 1521 1524 1526 1528 1530 1532 1534 1535 1536 1536 1537 1538 1539 1539 1540 1541 1541 1542 1542 1543 1543 1544 1544 1544 1544 1544 1545 1545 1545 1546 1547 1546 1547 1547 1547 1548 1549
1489 1493 1496 1496 1497 1499 1501 1502 1504 1509 1512 1515 1519 1522 1524 1526 1529 1531 1533 1534 1535 1536 1536 1537 1538 1538 1539 1540 1541 1542 1543 1542 1543 1543 1543 1543 1544 1544 1544 1545 1545 1545 1545 1545 1546 1546 1547 1547 1548
1490 1494 1495 1496 1497 1498 1499 1500 1501 1505 1509 1512 1516 1519 1521 1524 1527 1529 1531 1533 1534 1535 1535 1536 1537 1538 1539 1540 1540 1541 1541 1542 1542 1543 1542 1543 1543 1543 1544 1544 1544 1544 1544 1544 1544 1544 1545 1546 1546
1491 1491 1492 1495 1497 1497 1499 1500 1499 1502 1506 1510 1513 1515 1518 1521 1524 1527 1529 1531 1532 1533 1534 1536 1536 1537 1538 1539 1540 1541 1541 1541 1542 1542 1542 1542 1542 1542 1543 1543 1543 1542 1543 1543 1542 1543 1543 1544 1545
1492 1486 1489 1493 1498 1496 1498 1503 1496 1496 1501 1505 1508 1512 1515 1518 1521 1524 1526 1528 1530 1531 1533 1534 1535 1536 1537 1538 1539 1540 1541 1541 1541 1541 1541 1541 1541 1541 1541 1541 1541 1541 1541 1541 1541 1541 1542 1542 1543
1486 1486 1489 1491 1494 1496 1495 1500 1494 1493 1497 1499 1503 1507 1511 1514 1518 1520 1523 1525 1528 1530 1531 1532 1533 1534 1535 1537 1537 1538 1540 1540 1540 1540 1539 1539 1540 1540 1540 1540 1539 1539 1539 1539 1539 1539 1540 1540 1540
1487 1490 1492 1491 1490 1504 1497 1500 1499 1489 1492 1493 1497 1503 1507 1511 1515 1518 1521 1523 1525 1528 1529 1531 1531 1533 1534 1535 1536 1537 1538 1538 1538 1538 1538 1539 1539 1539 1538 1538 1538 1538 1538 1538 1538 1538 1538 1538 1538
1487 1494 1504 1507 1505 1503 1494 1498 1495 1487 1489 1491 1494 1499 1504 1508 1511 1515 1518 1521 1523 1525 1527 1529 1530 1531 1532 1534 1535 1536 1536 1536 1537 1537 1537 1537 1538 1538 1537 1537 1537 1537 1536 1536 1536 1536 1536 1536 1536
1484 1485 1502 1513 1508 1497 1497 1497 1489 1486 1490 1492 1494 1497 1501 1505 1508 1512 1515 1518 1521 1523 1525 1527 1528 1529 1531 1532 1533 1534 1535 1536 1536 1536 1536 1536 1536 1536 1535 1535 1535 1535 1535 1535 1535 1535 1534 1534 1534
1482 1482 1476 1487 1492 1497 1492 1489 1485 1485 1488 1491 1493 1496 1500 1503 1506 1510 1513 1516 1519 1521 1523 1525 1526 1528 1529 1530 1531 1532 1533 1533 1534 1534 1534 1534 1534 1534 1533 1533 1533 1534 1534 1533 1533 1533 1533 1532 1533
1475 1474 1481 1486 1504 1507 1497 1492 1488 1486 1486 1488 1491 1495 1499 1502 1505 1508 1511 1514 1517 1519 1521 1523 1525 1526 1527 1529 1530 1531 1531 1532 1532 1532 1532 1532 1532 1532 1532 1532 1532 1532 1532 1532 1532 1531 1531 1531 1530
1480 1481 1480 1481 1484 1498 1502 1493 1478 1482 1484 1487 1490 1493 1497 1500 1503 1506 1509 1512 1515 1517 1520 1521 1523 1524 1526 1527 1528 1529 1530 1530 1530 1531 1531 1531 1530 1530 1530 1530 1530 1531 1530 1530 1530 1530 1529 1529 1529
1471 1473 1478 1488 1491 1487 1490 1490 1478 1481 1483 1486 1489 1493 1496 1500 1502 1505 1508 1511 1513 1516 1518 1520 1521 1523 1524 1525 1526 1527 1528 1528 1529 1529 1529 1529 1529 1529 1529 1529 1529 1529 1529 1529 1528 1528 1528 1528 1527